UFO 10 (USA 146)

Last updated on Tue Sep 22 2026 00:03:10 GMT+0000 (Coordinated Universal Time)

1 25967U 99063A 26264.12818907 -.00000186 00000+0 00000+0 0 9996 2 25967 9.9283 26.6879 0004242 195.8653 160.7068 1.00275241 98309
UTC large
Height (km)
Speed (km/s)
/
Latitude / Longitude
Inclination (degrees)
Orbital Period (minutes)
Azimuth
Elevation
Range (km)
Doppler Factor

Next 0 passes for location: London (51.5072 / 0.1276)

No passes found over London.
UFO 10 (USA 146)